Location: Cosy Dell
(34.2789°N, 117.4537°W)
Time: 21:01:12
(UTC+00:00)

SL-16 R/B - Pass Details

Date: 14 July 2020
Orbit: 985 x 1007 km, 99.5° (Epoch: 13 August)

Event Time Altitude Azimuth Distance (km) Brightness Sun altitude
Exits shadow 10:42:29 28° 266° (W) 1,778 3.5 -21.5°
Drops below altitude 10° 10:47:37 10° 321° (NW) 2,782 5.0 -20.8°
Sets 10:50:31 0° 333° (NNW) 3,738 5.8 -20.4°
